User: anonymous   Login
Location: Unspecified
(0.0000°N, 0.0000°E)
Time: 21:16:56
(UTC+00:00)
Language:

OPTOS - Orbit

View from above orbital plane
View from above orbital plane
View from above satellite
View from above satellite

Ground track
Ground track

The orbit data is extracted from the following two-line orbital elements,

1 39429U 13066P   23083.62054486  .00006231  00000-0  10423-2 0  9998
2 39429  97.8041 347.3587 0138531 213.2453 146.0143 14.63975832497755
Epoch (UTC): 24 March 2023 14:53:35
Eccentricity: 0.0138531
inclination: 97.8041°
perigee height: 582 km
apogee height: 778 km
right ascension of ascending node: 347.3587°
argument of perigee: 213.2453°
revolutions per day: 14.63975832
mean anomaly at epoch: 146.0143°
orbit number at epoch: 49775

The dashed part of the orbit path shows where the satellite is in the earth's shadow,  

DLR